TimeCDT,TemperatureF,Dew PointF,Humidity,Sea Level PressureIn,VisibilityMPH,Wind Direction,Wind SpeedMPH,Gust SpeedMPH,PrecipitationIn,Events,Conditions,WindDirDegrees,DateUTC
12:09 AM,50.0,46.4,87,29.92,10.0,Calm,Calm,-,N/A,,Clear,0,2013-06-12 05:09:00
12:29 AM,48.2,46.4,93,29.92,10.0,Calm,Calm,-,N/A,,Clear,0,2013-06-12 05:29:00
12:49 AM,46.4,44.6,93,29.92,10.0,Calm,Calm,-,N/A,,Clear,0,2013-06-12 05:49:00
1:09 AM,46.4,46.4,100,29.91,7.0,Calm,Calm,-,N/A,,Clear,0,2013-06-12 06:09:00
1:29 AM,44.6,42.8,93,29.91,7.0,Calm,Calm,-,N/A,,Clear,0,2013-06-12 06:29:00
1:49 AM,44.6,44.6,100,29.91,4.0,Calm,Calm,-,N/A,,Clear,0,2013-06-12 06:49:00
2:09 AM,44.6,42.8,93,29.91,2.5,Calm,Calm,-,N/A,,Clear,0,2013-06-12 07:09:00
2:29 AM,44.6,42.8,93,29.90,3.0,Calm,Calm,-,N/A,,Clear,0,2013-06-12 07:29:00
2:49 AM,42.8,42.8,100,29.91,10.0,Calm,Calm,-,N/A,,Clear,0,2013-06-12 07:49:00
3:09 AM,42.8,41.0,93,29.92,10.0,Calm,Calm,-,N/A,,Clear,0,2013-06-12 08:09:00
3:29 AM,42.8,41.0,93,29.91,10.0,Calm,Calm,-,N/A,,Clear,0,2013-06-12 08:29:00
3:49 AM,42.8,41.0,93,29.91,10.0,Calm,Calm,-,N/A,,Clear,0,2013-06-12 08:49:00
4:09 AM,42.8,41.0,93,29.91,5.0,Calm,Calm,-,N/A,,Clear,0,2013-06-12 09:09:00
4:29 AM,42.8,41.0,93,29.90,7.0,Calm,Calm,-,N/A,,Clear,0,2013-06-12 09:29:00
4:49 AM,42.8,41.0,93,29.90,0.8,Calm,Calm,-,N/A,,Mist,0,2013-06-12 09:49:00
5:09 AM,42.8,41.0,93,29.90,1.5,Calm,Calm,-,N/A,,Mist,0,2013-06-12 10:09:00
5:29 AM,42.8,41.0,93,29.91,0.8,Calm,Calm,-,N/A,,Mist,0,2013-06-12 10:29:00
5:49 AM,42.8,41.0,93,29.93,10.0,Calm,Calm,-,N/A,,Clear,0,2013-06-12 10:49:00
6:09 AM,44.6,42.8,93,29.92,10.0,Calm,Calm,-,N/A,,Clear,0,2013-06-12 11:09:00
6:29 AM,46.4,46.4,100,29.91,10.0,Calm,Calm,-,N/A,,Clear,0,2013-06-12 11:29:00
6:49 AM,51.8,51.8,100,29.91,10.0,Calm,Calm,-,N/A,,Clear,0,2013-06-12 11:49:00
7:09 AM,57.2,53.6,88,29.91,10.0,Calm,Calm,-,N/A,,Clear,0,2013-06-12 12:09:00
7:29 AM,57.2,51.8,82,29.90,10.0,Calm,Calm,-,N/A,,Clear,0,2013-06-12 12:29:00
7:49 AM,62.6,53.6,72,29.91,10.0,Calm,Calm,-,N/A,,Clear,0,2013-06-12 12:49:00
8:09 AM,62.6,50.0,63,29.91,10.0,NNE,3.5,-,N/A,,Clear,30,2013-06-12 13:09:00
8:29 AM,64.4,50.0,59,29.91,10.0,NE,4.6,-,N/A,,Clear,50,2013-06-12 13:29:00
8:49 AM,66.2,50.0,56,29.90,10.0,NNE,4.6,-,N/A,,Clear,30,2013-06-12 13:49:00
9:09 AM,68.0,50.0,52,29.91,10.0,NNE,4.6,-,N/A,,Scattered Clouds,20,2013-06-12 14:09:00
9:29 AM,69.8,48.2,46,29.91,10.0,NE,5.8,-,N/A,,Scattered Clouds,40,2013-06-12 14:29:00
9:49 AM,69.8,48.2,46,29.92,10.0,NE,5.8,-,N/A,,Scattered Clouds,40,2013-06-12 14:49:00
10:09 AM,71.6,50.0,46,29.91,10.0,NE,4.6,-,N/A,,Scattered Clouds,40,2013-06-12 15:09:00
10:29 AM,71.6,48.2,43,29.91,10.0,Calm,Calm,-,N/A,,Scattered Clouds,0,2013-06-12 15:29:00
10:49 AM,71.6,46.4,41,29.91,10.0,Calm,Calm,-,N/A,,Mostly Cloudy,0,2013-06-12 15:49:00
11:09 AM,71.6,46.4,41,29.90,10.0,NW,5.8,-,N/A,,Scattered Clouds,320,2013-06-12 16:09:00
11:29 AM,71.6,46.4,41,29.90,10.0,NE,5.8,-,N/A,,Clear,50,2013-06-12 16:29:00
11:49 AM,73.4,46.4,38,29.90,10.0,North,4.6,-,N/A,,Clear,360,2013-06-12 16:49:00
12:09 PM,71.6,44.6,38,29.90,10.0,Calm,Calm,-,N/A,,Clear,0,2013-06-12 17:09:00
12:29 PM,73.4,46.4,38,29.90,10.0,NW,4.6,-,N/A,,Scattered Clouds,310,2013-06-12 17:29:00
12:49 PM,73.4,46.4,38,29.90,10.0,NNE,4.6,-,N/A,,Mostly Cloudy,20,2013-06-12 17:49:00
1:09 PM,73.4,46.4,38,29.90,10.0,NNW,6.9,-,N/A,,Mostly Cloudy,330,2013-06-12 18:09:00
1:29 PM,77.0,48.2,36,29.90,10.0,WNW,8.1,16.1,N/A,,Scattered Clouds,300,2013-06-12 18:29:00
1:49 PM,77.0,46.4,34,29.89,10.0,WNW,9.2,16.1,N/A,,Scattered Clouds,290,2013-06-12 18:49:00
2:09 PM,77.0,46.4,34,29.90,10.0,NW,13.8,-,N/A,,Scattered Clouds,320,2013-06-12 19:09:00
2:29 PM,77.0,46.4,34,29.89,10.0,North,10.4,16.1,N/A,,Clear,360,2013-06-12 19:29:00
2:50 PM,77.0,46.4,34,29.89,10.0,NNW,10.4,17.3,N/A,,Clear,330,2013-06-12 19:50:00
3:09 PM,75.2,44.6,34,29.89,10.0,NNW,5.8,-,N/A,,Clear,340,2013-06-12 20:09:00
3:29 PM,75.2,44.6,34,29.88,10.0,NW,12.7,18.4,N/A,,Scattered Clouds,310,2013-06-12 20:29:00
3:50 PM,77.0,46.4,34,29.88,10.0,North,9.2,16.1,N/A,,Scattered Clouds,350,2013-06-12 20:50:00
4:09 PM,73.4,44.6,36,29.88,10.0,NW,11.5,20.7,N/A,,Scattered Clouds,320,2013-06-12 21:09:00
4:29 PM,73.4,42.8,33,29.88,10.0,NNE,10.4,19.6,N/A,,Scattered Clouds,20,2013-06-12 21:29:00
4:50 PM,71.6,42.8,35,29.89,10.0,North,10.4,16.1,N/A,,Scattered Clouds,10,2013-06-12 21:50:00
5:09 PM,71.6,44.6,38,29.90,10.0,NNW,11.5,17.3,N/A,,Clear,340,2013-06-12 22:09:00
5:29 PM,71.6,42.8,35,29.90,10.0,North,13.8,23.0,N/A,,Clear,10,2013-06-12 22:29:00
5:50 PM,71.6,44.6,38,29.90,10.0,NNE,16.1,26.5,N/A,,Clear,20,2013-06-12 22:50:00
6:09 PM,69.8,44.6,40,29.91,10.0,North,11.5,20.7,N/A,,Clear,350,2013-06-12 23:09:00
6:29 PM,68.0,42.8,40,29.91,10.0,North,10.4,19.6,N/A,,Clear,10,2013-06-12 23:29:00
6:50 PM,68.0,42.8,40,29.91,10.0,North,5.8,-,N/A,,Clear,360,2013-06-12 23:50:00
7:09 PM,68.0,44.6,43,29.92,10.0,North,6.9,-,N/A,,Clear,360,2013-06-13 00:09:00
7:29 PM,66.2,44.6,46,29.92,10.0,NNW,5.8,-,N/A,,Clear,340,2013-06-13 00:29:00
7:49 PM,66.2,42.8,43,29.92,10.0,North,4.6,-,N/A,,Clear,350,2013-06-13 00:49:00
8:09 PM,64.4,42.8,45,29.93,10.0,NNW,4.6,-,N/A,,Clear,340,2013-06-13 01:09:00
8:29 PM,64.4,42.8,45,29.93,10.0,North,6.9,-,N/A,,Clear,360,2013-06-13 01:29:00
8:49 PM,64.4,42.8,45,29.94,10.0,North,5.8,-,N/A,,Clear,350,2013-06-13 01:49:00
9:09 PM,64.4,42.8,45,29.95,10.0,NNW,3.5,-,N/A,,Clear,340,2013-06-13 02:09:00
9:29 PM,62.6,42.8,48,29.96,10.0,NNW,5.8,-,N/A,,Clear,340,2013-06-13 02:29:00
9:49 PM,62.6,42.8,48,29.96,10.0,NNW,5.8,-,N/A,,Clear,340,2013-06-13 02:49:00
10:09 PM,62.6,44.6,52,29.97,10.0,NNW,6.9,-,N/A,,Clear,330,2013-06-13 03:09:00
10:29 PM,62.6,44.6,52,29.98,10.0,NNW,6.9,-,N/A,,Clear,330,2013-06-13 03:29:00
10:49 PM,62.6,46.4,55,29.98,10.0,NNW,5.8,-,N/A,,Clear,340,2013-06-13 03:49:00
11:09 PM,60.8,44.6,55,29.98,10.0,NNW,4.6,-,N/A,,Clear,340,2013-06-13 04:09:00
11:29 PM,60.8,44.6,55,29.99,10.0,North,6.9,-,N/A,,Clear,360,2013-06-13 04:29:00
11:49 PM,60.8,44.6,55,29.99,10.0,North,5.8,-,N/A,,Clear,360,2013-06-13 04:49:00